Location: Sternwarte_Laufen
(47.9344°N, 12.9346°E)
Time: 17:20:17
(UTC+02:00)

ACS3 Solar Sail - Visible Passes

Search period start: 10 May 2026 00:00
Search period end: 20 May 2026 00:00
Orbit: 890 x 951 km, 97.2° (Epoch: 8 May)

Date Brightness Start Highest point End Pass type
(mag) Time Alt. Az. Time Alt. Az. Time Alt. Az.
10 May 3.3 00:46:55 10° NE 00:51:25 21° E 00:53:00 19° ESE visible
10 May 1.8 02:28:19 10° N 02:34:18 70° WNW 02:36:30 40° SW visible
10 May 3.7 04:12:33 10° NNW 04:15:36 14° NW 04:18:40 10° W visible
11 May 3.1 00:55:20 10° NE 01:00:12 25° E 01:01:51 22° ESE visible
11 May 1.9 02:37:03 10° N 02:42:56 60° WNW 02:45:20 36° SW visible
11 May 3.8 04:21:46 10° NNW 04:24:06 12° NW 04:26:26 10° WNW visible
12 May 2.9 01:03:47 10° NNE 01:09:00 30° E 01:10:42 26° ESE visible
12 May 2.1 02:45:47 10° N 02:51:35 52° WNW 02:54:11 31° SW visible
12 May 3.9 04:31:25 10° NW 04:32:36 11° NW 04:33:46 10° WNW visible
13 May 2.7 01:12:19 10° NNE 01:17:46 35° E 01:19:33 29° SE visible
13 May 2.3 02:54:32 10° N 03:00:12 44° WNW 03:03:02 27° WSW visible
14 May 2.5 01:20:52 10° NNE 01:26:31 41° E 01:28:23 33° SE visible
14 May 2.6 03:03:20 10° N 03:08:49 38° WNW 03:11:53 23° WSW visible
15 May 2.3 01:29:27 10° NNE 01:35:16 48° E 01:37:14 36° SE visible
15 May 2.8 03:12:08 10° N 03:17:24 33° WNW 03:20:44 20° WSW visible
16 May 2.1 01:38:05 10° NNE 01:44:00 56° E 01:46:05 38° SSE visible
16 May 3.0 03:20:58 10° N 03:26:00 29° WNW 03:29:34 16° WSW visible
17 May 3.9 00:07:47 10° ENE 00:09:15 11° E 00:10:41 10° E visible
17 May 1.9 01:46:43 10° NNE 01:52:44 66° E 01:54:56 40° SSE visible
17 May 3.2 03:29:50 10° N 03:34:35 25° WNW 03:38:25 14° WSW visible
18 May 3.8 00:15:21 10° NE 00:18:07 13° E 00:20:17 11° ESE visible
18 May 1.7 01:55:23 10° NNE 02:01:26 77° ESE 02:03:47 40° S visible
18 May 3.3 03:38:44 10° NNW 03:43:08 22° WNW 03:47:16 11° WSW visible
19 May 3.6 00:23:24 10° NE 00:26:58 16° E 00:29:08 13° ESE visible
19 May 1.7 02:04:04 10° NNE 02:10:08 89° E 02:12:37 38° SSW visible
19 May 3.5 03:47:41 10° NNW 03:51:42 19° WNW 03:55:41 10° W visible
